Location: Elaine Barite Prospect
(34.1431°N, 106.7922°W)
Time: 05:14:07
(UTC+00:00)

Cosmos 1092 Rocket - Pass Details

Date: 13 December 2025
Orbit: 953 x 995 km, 83.0° (Epoch: 12 January)

Event Time Altitude Azimuth Distance (km) Brightness Sun altitude
Rises 12:15:28 0° 192° (SSW) 3,683 7.1 -21.9°
Reaches altitude 10° 12:18:00 10° 195° (SSW) 2,733 6.3 -21.4°
Maximum altitude 12:24:14 67° 277° (W) 1,055 3.9 -20.1°
Drops below altitude 10° 12:30:26 10° 0° (N) 2,720 6.2 -18.9°
Sets 12:32:58 0° 3° (N) 3,664 6.9 -18.4°
